Flight Track Log - Related Links

Times and Time Zones

All times are in EDT time to prevent confusion due to time zone crossing. See the SWA2855 flight status page for this flight to view local times or setup timezone preferences in your user account.

Time Position Orientation Groundspeed Altitude Reporting Facility
EDT Latitude Longitude Course Direction KTS MPH feet Rate Location/Type
Tue 06:28:04 AM 39.1500 -76.6500 270° West 157 181 2,400  Level Potomac TRACON
Tue 06:28:58 AM 39.1500 -76.7000 270° West 197 227 4,700 2,889 Climbing Potomac TRACON
Tue 06:29:52 AM 39.1833 -76.7500 311° West 207 238 7,600 3,684 Climbing Potomac TRACON
Tue 06:30:52 AM 39.2000 -76.8500 282° West 276 318 11,700 4,450 Climbing Potomac TRACON
Tue 06:31:52 AM 39.2167 -76.9500 282° West 292 336 16,500 3,600 Climbing Potomac TRACON
Tue 06:32:52 AM 39.1833 -77.0500 247° West 344 396 18,900 2,254 Climbing Potomac TRACON
Tue 06:34:45 AM 39.1347 -77.2989 256° West 380 437 23,000 1,769 Climbing Washington Center
Tue 06:35:45 AM 39.1100 -77.4294 256° West 380 437 24,000 1,950 Climbing Washington Center
Tue 06:36:45 AM 39.0892 -77.5492 257° West 380 437 26,900 2,150 Climbing Washington Center
Tue 06:37:45 AM 39.0597 -77.6928 255° West 385 443 28,300 1,450 Climbing Washington Center
Tue 06:38:45 AM 39.0389 -77.8097 257° West 385 443 29,800 850 Climbing Washington Center
Tue 06:39:45 AM 39.0136 -77.9400 256° West 380 437 30,000 100 Climbing Washington Center
Tue 06:40:45 AM 38.9900 -78.0728 257° West 380 437 30,000  Level Washington Center
Tue 06:41:45 AM 38.9644 -78.2000 256° West 380 437 30,000  Level Washington Center
Tue 06:42:45 AM 38.9633 -78.3361 269° West 380 437 30,000  Level Washington Center
Tue 06:43:45 AM 38.9706 -78.4753 274° West 380 437 30,000  Level Washington Center
Tue 06:44:45 AM 38.9736 -78.6089 272° West 385 443 30,000  Level Washington Center
Tue 06:45:45 AM 38.9783 -78.7453 273° West 385 443 30,000  Level Washington Center
Tue 06:46:45 AM 38.9808 -78.8842 271° West 385 443 30,000  Level Washington Center
Tue 06:47:45 AM 38.9853 -79.0233 272° West 385 443 30,000  Level Washington Center
Tue 06:48:45 AM 38.9897 -79.1622 272° West 385 443 30,000  Level Washington Center
Tue 06:49:45 AM 38.9917 -79.3014 271° West 385 443 30,000  Level Washington Center
Tue 06:50:45 AM 38.9956 -79.4431 272° West 390 449 30,000  Level Washington Center
Tue 06:51:45 AM 38.9989 -79.6008 272° West 400 460 30,000  Level Washington Center
Tue 06:52:45 AM 39.0003 -79.7400 271° West 407 468 30,000  Level Washington Center
Tue 06:53:45 AM 39.0017 -79.8789 271° West 407 468 30,000  Level Washington Center
Tue 06:55:21 AM 39.0047 -80.0800 271° West 380 437 30,000  Level Indianapolis Center
Tue 06:56:22 AM 39.0064 -80.2083 271° West 381 438 30,000  Level Indianapolis Center
Tue 06:57:23 AM 39.0094 -80.3447 272° West 382 440 30,000  Level Indianapolis Center
Tue 06:58:24 AM 39.0100 -80.5067 270° West 379 436 30,000  Level Indianapolis Center
Tue 06:59:25 AM 39.0119 -80.6428 271° West 380 437 30,000 -492 Level Indianapolis Center
Tue 07:00:26 AM 39.0131 -80.7781 271° West 380 437 29,000 -992 Descending Indianapolis Center
Tue 07:01:26 AM 39.0475 -80.8950 291° West 355 409 28,000 -992 Descending Indianapolis Center
Tue 07:02:27 AM 39.0942 -81.0067 298° West 355 409 27,000 -984 Descending Indianapolis Center
Tue 07:03:28 AM 39.1389 -81.1175 298° West 351 404 26,000 -984 Descending Indianapolis Center
Tue 07:04:29 AM 39.1819 -81.2294 296° West 350 403 25,000 -984 Descending Indianapolis Center
Tue 07:05:30 AM 39.2222 -81.3403 295° West 345 397 24,000 -984 Descending Indianapolis Center
Tue 07:06:31 AM 39.2633 -81.4517 296° West 346 398 23,000 -984 Descending Indianapolis Center
Tue 07:07:32 AM 39.3022 -81.5600 295° West 337 388 22,000 -984 Descending Indianapolis Center
Tue 07:08:33 AM 39.3425 -81.6697 295° West 339 390 21,000 -984 Descending Indianapolis Center
Tue 07:09:34 AM 39.3831 -81.7781 296° West 336 387 20,000 -1,082 Descending Indianapolis Center
Tue 07:10:35 AM 39.4294 -81.9058 295° West 330 380 18,800 -1,131 Descending Indianapolis Center
Tue 07:11:36 AM 39.4669 -82.0108 295° West 324 373 17,700 -1,381 Descending Indianapolis Center
Tue 07:12:28 AM 39.4981 -82.0969 295° West 319 367 16,200 -1,960 Descending Indianapolis Center
Tue 07:13:17 AM 39.5283 -82.1836 294° West 315 362 14,400 -2,057 Descending Indianapolis Center
Tue 07:13:38 AM 39.5436 -82.2183 300° West 312 359 13,800 -1,500 Descending Indianapolis Center
Tue 07:14:17 AM 39.5772 -82.2753 307° West 309 356 12,900 -1,452 Descending Indianapolis Center
Tue 07:14:40 AM 39.5950 -82.3067 306° West 305 351 12,300 -1,475 Descending Indianapolis Center
Tue 07:15:18 AM 39.6258 -82.3642 305° West 303 349 11,400 -1,475 Descending Indianapolis Center
Tue 07:15:41 AM 39.6456 -82.3953 309° West 304 350 10,800 -1,300 Descending Indianapolis Center
Tue 07:16:18 AM 39.6769 -82.4508 306° West 301 346 10,100 -787 Descending Indianapolis Center
Tue 07:16:42 AM 39.6953 -82.4833 306° West 301 346 10,000 -98 Descending Indianapolis Center
Tue 07:17:19 AM 39.7258 -82.5372 306° West 300 345 10,000  Level Indianapolis Center
Tue 07:17:43 AM 39.7447 -82.5706 306° West 299 344 10,000 -197 Level Indianapolis Center
Tue 07:18:20 AM 39.7744 -82.6267 305° West 283 326 9,800 -885 Descending Indianapolis Center
Tue 07:18:44 AM 39.7897 -82.6500 310° West 273 314 9,100 -1,900 Descending Indianapolis Center
Tue 07:19:20 AM 39.8194 -82.7047 305° West 265 305 7,900 -1,672 Descending Indianapolis Center
Tue 07:19:45 AM 39.8342 -82.7292 308° West 271 312 7,400 -1,082 Descending Indianapolis Center
Tue 07:20:21 AM 39.8628 -82.7803 306° West 265 305 6,800 -968 Descending Indianapolis Center
Tue 07:20:47 AM 39.8769 -82.8050 307° West 260 299 6,400 -787 Descending Indianapolis Center
Tue 07:21:22 AM 39.8953 -82.8544 296° West 233 268 6,000 -393 Descending Indianapolis Center
Tue 07:21:48 AM 39.8978 -82.8797 277° West 219 252 6,000 -500 Level Indianapolis Center
Tue 07:22:22 AM 39.9006 -82.9311 274° West 202 232 5,500 -885 Descending Indianapolis Center
Tue 07:22:49 AM 39.9044 -82.9569 281° West 212 244 5,100 -885 Descending Indianapolis Center
Tue 07:23:23 AM 39.9103 -83.0056 279° West 217 250 4,600 -968 Descending Indianapolis Center
Tue 07:23:51 AM 39.9119 -83.0314 275° West 210 242 4,100 -1,433 Descending Indianapolis Center
Tue 07:24:30 AM 39.9283 -83.0758 296° West 208 239 3,000 -1,377 Descending Indianapolis Center
Tue 07:24:52 AM 39.9442 -83.0767 358° North 213 245 2,700 -300 Descending Indianapolis Center
Tue 07:25:30 AM 39.9881 -83.0608 15° North 209 241 2,700  Level Indianapolis Center
Tue 07:25:53 AM 39.9975 -83.0481 46° Northeast 211 243 2,700 -545 Level Indianapolis Center
Tue 07:26:25 AM 40.0003 -83.0053 85° East 198 228 2,200 -871 Descending Indianapolis Center
Tue 07:26:55 AM 39.9981 -82.9744 95° East 180 207 1,800 -689 Descending Indianapolis Center
Tue 07:27:26 AM 39.9978 -82.9506 91° East 118 136 1,500 -689 Descending Indianapolis Center
Tue 07:27:56 AM 39.9958 -82.9289 97° East 147 169 1,100 -391 Descending Indianapolis Center
Tue 07:28:58 AM 39.9936 -82.8917 94° East 138 159 900 -194 Descending Indianapolis Center

Login

Don't have an account? Register now (free) for customized features, flight alerts, and more!